Regional Weather Roundup
Issued by NWS Newport/Morehead, NC

Current Version | Previous Version | Text Only | Print | Product List | Glossary On
Versions: 1 2 3 4 5 6 7 8 9 10 11 12 13 14 15 16 17 18 19 20 21 22 23 24 25 26 27 28 29 30 31 32 33 34 35 36 37 38 39 40 41 42 43 44 45 46 47 48 49 50
000 ASUS42 KMHX 271310 RWRMHX WEATHER ROUNDUP FOR EASTERN NORTH CAROLINA NATIONAL WEATHER SERVICE NEWPORT/MOREHEAD CITY NC 800 AM EST TUE JAN 27 2015 NOTE: "FAIR" INDICATES FEW OR NO CLOUDS BELOW 12,000 FEET WITH NO SIGNIFICANT WEATHER AND/OR OBSTRUCTIONS TO VISIBILITY NCZ015>017-031-032-045>047-102-103-271400- NORTH COAST CITY SKY/WX TMP DP RH WIND PRES REMARKS EDENTON MIX PCPN 32 29 90 N9 29.76R ELIZABETH CITY LGT SNOW 31 29 92 NW12 29.75R VSB 1 KITTY HAWK LGT SNOW 32 32 100 NW10G18 29.71R MANTEO MIX PCPN 32 30 93 NW14G22 29.73R $$ NCZ045>047-081-094-103-104-271400- CENTRAL COAST CITY SKY/WX TMP DP RH WIND PRES REMARKS FRISCO CLOUDY 36 32 85 N9G21 29.70R SWANQUARTER NOT AVBL $$ NCZ095-097-098-100-101-271400- SOUTHERN COAST CITY SKY/WX TMP DP RH WIND PRES REMARKS BEAUFORT CLOUDY 38 33 82 NW20 29.74R CEDAR ISLAND NOT AVBL JACKSONVILLE CLOUDY 37 28 70 NW13 29.78R PINEY ISLAND N/A N/A N/A N/A MISG 29.73R WILMINGTON CLOUDY 38 36 92 NW14 29.78R FOG $$ NCZ011>013-027>030-043-044-078>080-089-090>093-098-271400- COASTAL PLAIN CITY SKY/WX TMP DP RH WIND PRES REMARKS AHOSKIE LGT SNOW 30 27 89 N5 29.80R CLINTON CLOUDY 37 32 84 NW9 29.80R ELIZABETHTOWN CLOUDY 38 31 75 CALM 29.80R GOLDSBORO CLOUDY 36 35 99 N9 29.78R GREENVILLE LGT SNOW 32 32 100 N3 29.82R HAVELOCK CLOUDY 38 29 70 N17G24 29.76R KENANSVILLE CLOUDY 36 34 95 NW7 29.80R KINSTON MOCLDY 36 30 80 NW5 29.79R NEW BERN CLOUDY 37 29 72 NW13 29.78R RICHLANDS CLOUDY 37 28 70 N5 29.78R ROCKY MOUNT CLOUDY 34 31 88 N7 29.80R WASHINGTON FLURRIES 32 28 86 N13G18 29.77R WHITEVILLE CLOUDY 39 27 63 CALM 29.80R $$ AMZ130-135-150-152-154-156-158-170-250-252-270-ANZ085-086-088-633-658-670-271400- MARINE OBSERVATIONS STATION/POSITION TIME TEMP WIND PRES WAVE SWELL AIR SEA DIR/SP/G HT/PER HT/PER (UTC) (F) (DEG/KT/KT) (MB) (FT/S) (FT/S) CHESAPEAKE LIGHT 1200 33 340/ 24/ 26 1006.1 64 E VA BEACH 1300 37 51 340/ 21/ 23 1004.1 13/12 10/12 DUCK 1300 33 43 330/ 20/ 23 1005.4 2 E DUCK 1300 44 N/A 8/11 3/11 10 NE DUCK 1300 45 N/A 11/11 7/11 OREGON INLET 1300 33 46 320/ 16/ 22 1005.8 13E OREGON INLT 1300 47 N/A 11/11 7/11 HATTERAS CG 1300 38 49 340/ 17/ 23 1006.0 DIAMOND BUOY 1300 41 69 330/ 21/ 27 1004.5 7/10 5/10 17 S OCRACOKE NOT AVBL CAPE LOOKOUT 1200 40 340/ 15/ 19 1005.7 BEAUFORT LAB 1300 38 49 340/ 8/ 15 1005.8 27 SE WRIGHTSVLE NOT AVBL 5 SE WRIGHTSVLE 1200 42 53 320/ 19/ 23 1007.1 225 S CAPE HAT 1151 57 72 310/ 21/ 27 1004.4 13/10 7/10 41 SE CHARLESTON 1300 45 67 310/ 19/ 25 1009.6 7/ 7 2/ 9 $$

USA.gov is the U.S. government's official web portal to all federal, state and local government web resources and services.